Location: Buchloe
(48.0161°N, 10.7316°E)
Time: 04:14:24
(UTC+02:00)

ISS - Pass Details

Date: 07 July 2025
Orbit: 413 x 417 km, 51.6° (Epoch: 12 July)

Event Time Altitude Azimuth Distance (km) Brightness Sun altitude
Rises 23:35:29 0° 241° (WSW) 2,343 0.0 -15.6°
Reaches altitude 10° 23:37:34 10° 239° (WSW) 1,484 -1.0 -15.7°
Maximum altitude 23:40:54 76° 154° (SSE) 432 -3.9 -15.9°
Drops below altitude 10° 23:44:14 10° 69° (ENE) 1,492 -1.0 -16.2°
Sets 23:46:21 0° 68° (ENE) 2,359 0.1 -16.3°
